Regional Weather Roundup
Issued by NWS Albany, NY

Home | Current Version | Previous Version | Graphics & Text | Print | Product List | Glossary Off
Versions: 1 2 3 4 5 6 7 8 9 10 11 12 13 14 15 16 17 18 19 20 21 22 23 24 25 26 27 28

000
ASUS41 KALY 250010
RWRALY

NEW YORK STATE HOURLY WEATHER ROUNDUP
NATIONAL WEATHER SERVICE ALBANY NY
800 PM EDT THU MAY 24 2018

NOTE: "FAIR" INDICATES FEW OR NO CLOUDS BELOW 12,000 FEET WITH NO
SIGNIFICANT WEATHER AND/OR NO OBSTRUCTIONS TO VISIBILITY.

NYZ032-033-038>043-046>054-057>066-NYZ062>081-082-084-250100-
EAST


CITY           SKY/WX    TMP DP  RH WIND       PRES   REMARKS
ALBANY         FAIR      73  45  36 W9        30.04R
GLENS FALLS    FAIR      74  47  38 SE3       30.00S
POUGHKEEPSIE   FAIR      73  50  44 SE5       30.03R
NEWBURGH       CLEAR     79  46  31 CALM      30.06S
MONTGOMERY     FAIR      74  51  44 W6        30.04R
WHITE PLAINS   FAIR      72  40  31 S8G17     30.07R
ISLIP          FAIR      67  46  47 SW10      30.09R
NEW YORK CITY  FAIR      76  40  27 S10       30.06S
CENTRAL PARK   FAIR      74  44  34 VRB3      30.09S
$$

NYZ005>009-017-018-044>046-055-056-250100-
CENTRAL


CITY           SKY/WX    TMP DP  RH WIND       PRES   REMARKS
FULTON         FAIR      70  50  49 CALM      30.05F
SYRACUSE       FAIR      73  50  44 W7        30.05S
ROME           FAIR      73  49  42 CALM      30.07S
ELMIRA         FAIR      73  56  54 CALM      30.08S
BINGHAMTON     FAIR      72  47  40 N5        30.11S
$$

NYZ026>034-041>043-087-250100-
NORTH


CITY           SKY/WX    TMP DP  RH WIND       PRES   REMARKS
WATERTOWN      FAIR      66  47  50 SW3       30.02F
FORT DRUM      NOT AVBL
OGDENSBURG     FAIR      70  48  45 S15       29.98F
MASSENA        FAIR      68  47  46 SW7       29.98S
SARANAC LAKE   FAIR      66  37  34 VRB5      30.03S
PLATTSBURGH    FAIR      62  38  40 CALM      29.98F
$$

NYZ001>004-010>016-019>021-085-250100-
WEST


CITY           SKY/WX    TMP DP  RH WIND       PRES   REMARKS
NIAGARA FALLS  FAIR      73  47  39 SW10      30.08S
BUFFALO        MOCLDY    66  48  52 SW9       30.10S
DUNKIRK        FAIR      66  52  60 SW5       30.12S
JAMESTOWN      FAIR      70  44  39 NW6       30.16S
WELLSVILLE     FAIR      71  44  37 NW7       30.16S
ROCHESTER      FAIR      76  45  33 W10       30.07S
PENN YAN       FAIR      76  44  32 W3        30.09S
$$

             KEY
       WCI = WIND CHILL INDEX
       VSB = VISIBILITY
       HX  = HEAT INDEX
$$




USA.gov is the U.S. government's official web portal to all federal, state and local government web resources and services.